Time,TemperatureF,DewpointF,PressureIn,WindDirection,WindDirectionDegrees,WindSpeedMPH,WindSpeedGustMPH,Humidity,HourlyPrecipIn,Conditions,Clouds,dailyrainin,SolarRadiationWatts/m^2,SoftwareType,DateUTC
2013-02-14 00:00:00,64.9,60.9,30.00,NW,306,0.0,0.0,87,0.00,,,0.03,0,Wunderground v.1.15,2013-02-14 05:00:00,
2013-02-14 00:04:00,65.0,61.0,29.99,NW,306,0.0,0.0,87,0.00,,,0.03,0,Wunderground v.1.15,2013-02-14 05:04:00,
2013-02-14 00:08:00,65.0,61.0,29.99,NW,306,0.0,0.0,87,0.00,,,0.00,0,Wunderground v.1.15,2013-02-14 05:08:00,
2013-02-14 00:10:00,65.0,61.4,29.99,NW,306,0.0,0.0,88,0.00,,,0.00,0,Wunderground v.1.15,2013-02-14 05:10:00,
2013-02-14 00:16:00,64.8,61.2,29.99,NW,306,0.0,0.0,88,0.00,,,0.00,0,Wunderground v.1.15,2013-02-14 05:16:00,
2013-02-14 00:22:00,64.9,60.9,29.99,NW,306,0.0,0.0,87,0.00,,,0.00,0,Wunderground v.1.15,2013-02-14 05:22:00,
2013-02-14 00:28:00,64.7,61.1,29.99,NW,306,0.0,0.0,88,0.00,,,0.00,0,Wunderground v.1.15,2013-02-14 05:28:00,
2013-02-14 00:34:00,64.5,60.9,29.99,NW,306,0.0,0.0,88,0.00,,,0.00,0,Wunderground v.1.15,2013-02-14 05:34:00,
2013-02-14 00:40:00,64.4,61.1,29.99,NW,306,0.0,0.0,89,0.00,,,0.00,0,Wunderground v.1.15,2013-02-14 05:40:00,
2013-02-14 00:46:00,64.3,60.7,29.99,NW,306,0.0,0.0,88,0.00,,,0.00,0,Wunderground v.1.15,2013-02-14 05:46:00,
2013-02-14 00:52:00,64.2,60.9,29.99,NW,306,0.0,0.0,89,0.00,,,0.00,0,Wunderground v.1.15,2013-02-14 05:52:00,
2013-02-14 00:58:00,64.1,61.1,29.99,NW,306,0.0,0.0,90,0.00,,,0.00,0,Wunderground v.1.15,2013-02-14 05:58:00,
2013-02-14 01:04:00,64.1,61.1,29.99,NW,306,0.0,0.0,90,0.00,,,0.00,0,Wunderground v.1.15,2013-02-14 06:04:00,
2013-02-14 01:10:00,64.2,61.2,29.99,NW,306,0.0,0.0,90,0.00,,,0.00,0,Wunderground v.1.15,2013-02-14 06:10:00,
2013-02-14 01:16:00,64.3,61.3,29.99,NW,306,0.0,0.0,90,0.00,,,0.00,0,Wunderground v.1.15,2013-02-14 06:16:00,
2013-02-14 01:22:00,64.3,61.3,29.99,NW,306,0.0,0.0,90,0.00,,,0.00,0,Wunderground v.1.15,2013-02-14 06:22:00,
2013-02-14 01:28:00,64.3,61.3,29.99,NW,306,0.0,0.0,90,0.00,,,0.00,0,Wunderground v.1.15,2013-02-14 06:28:00,
2013-02-14 01:34:00,64.3,61.3,29.99,NW,306,0.0,0.0,90,0.00,,,0.00,0,Wunderground v.1.15,2013-02-14 06:34:00,
2013-02-14 01:40:00,64.3,61.3,29.98,NW,306,0.0,0.0,90,0.00,,,0.00,0,Wunderground v.1.15,2013-02-14 06:40:00,
2013-02-14 01:46:00,64.3,61.3,29.98,NW,306,0.0,0.0,90,0.00,,,0.00,0,Wunderground v.1.15,2013-02-14 06:46:00,
2013-02-14 01:52:00,64.3,61.3,29.98,NW,306,0.0,0.0,90,0.00,,,0.00,0,Wunderground v.1.15,2013-02-14 06:52:00,
2013-02-14 01:58:00,64.3,61.6,29.98,NW,306,0.0,0.0,91,0.00,,,0.00,0,Wunderground v.1.15,2013-02-14 06:58:00,
2013-02-14 02:04:00,64.4,61.7,29.98,NW,306,0.0,0.0,91,0.00,,,0.00,0,Wunderground v.1.15,2013-02-14 07:04:00,
2013-02-14 02:10:00,64.4,61.7,29.98,NW,306,0.0,0.0,91,0.00,,,0.00,0,Wunderground v.1.15,2013-02-14 07:10:00,
2013-02-14 02:16:00,64.5,61.5,29.99,NW,305,0.0,0.0,90,0.00,,,0.00,0,Wunderground v.1.15,2013-02-14 07:16:00,
2013-02-14 02:22:00,64.5,61.2,29.98,NW,305,0.0,0.0,89,0.00,,,0.00,0,Wunderground v.1.15,2013-02-14 07:22:00,
2013-02-14 02:28:00,64.6,61.3,29.97,NW,305,0.0,0.0,89,0.00,,,0.00,0,Wunderground v.1.15,2013-02-14 07:28:00,
2013-02-14 02:34:00,64.7,61.4,29.98,NW,305,0.0,0.0,89,0.00,,,0.00,0,Wunderground v.1.15,2013-02-14 07:34:00,
2013-02-14 02:40:00,64.6,61.3,29.97,NW,305,0.0,0.0,89,0.00,,,0.00,0,Wunderground v.1.15,2013-02-14 07:40:00,
2013-02-14 02:46:00,64.6,61.3,29.97,NW,305,0.0,0.0,89,0.00,,,0.00,0,Wunderground v.1.15,2013-02-14 07:46:00,
2013-02-14 02:52:00,64.4,61.1,29.96,NW,305,0.0,0.0,89,0.00,,,0.00,0,Wunderground v.1.15,2013-02-14 07:52:00,
2013-02-14 02:58:00,64.3,61.3,29.96,NW,306,0.0,0.0,90,0.00,,,0.00,0,Wunderground v.1.15,2013-02-14 07:58:00,
2013-02-14 03:04:00,64.3,61.3,29.96,NW,309,0.0,0.0,90,0.00,,,0.00,0,Wunderground v.1.15,2013-02-14 08:04:00,
2013-02-14 03:10:00,64.1,61.1,29.97,NW,309,0.0,0.0,90,0.00,,,0.00,0,Wunderground v.1.15,2013-02-14 08:10:00,
2013-02-14 03:16:00,64.0,61.0,29.97,NW,308,0.0,0.0,90,0.00,,,0.00,0,Wunderground v.1.15,2013-02-14 08:16:00,
2013-02-14 03:22:00,63.9,60.9,29.97,NW,308,0.0,0.0,90,0.00,,,0.00,0,Wunderground v.1.15,2013-02-14 08:22:00,
2013-02-14 03:28:00,63.9,60.6,29.97,NW,308,0.0,0.0,89,0.00,,,0.00,0,Wunderground v.1.15,2013-02-14 08:28:00,
2013-02-14 03:34:00,63.5,60.5,29.97,NW,308,0.0,0.0,90,0.00,,,0.00,0,Wunderground v.1.15,2013-02-14 08:34:00,
2013-02-14 03:40:00,63.0,60.3,29.98,NW,308,0.0,0.0,91,0.00,,,0.00,0,Wunderground v.1.15,2013-02-14 08:40:00,
2013-02-14 03:46:00,62.8,60.4,29.98,NW,308,0.0,0.0,92,0.00,,,0.00,0,Wunderground v.1.15,2013-02-14 08:46:00,
2013-02-14 03:52:00,62.7,60.3,29.97,NW,308,0.0,0.0,92,0.00,,,0.00,0,Wunderground v.1.15,2013-02-14 08:52:00,
2013-02-14 03:58:00,62.5,60.4,29.98,NW,308,0.0,0.0,93,0.00,,,0.00,0,Wunderground v.1.15,2013-02-14 08:58:00,
2013-02-14 04:04:00,62.5,60.4,29.97,NW,308,0.0,0.0,93,0.00,,,0.00,0,Wunderground v.1.15,2013-02-14 09:04:00,
2013-02-14 04:10:00,62.6,60.5,29.97,NW,308,0.0,0.0,93,0.00,,,0.00,0,Wunderground v.1.15,2013-02-14 09:10:00,
2013-02-14 04:16:00,62.8,60.4,29.98,NW,308,0.0,0.0,92,0.00,,,0.00,0,Wunderground v.1.15,2013-02-14 09:16:00,
2013-02-14 04:22:00,63.2,61.1,29.98,NW,308,0.0,0.0,93,0.00,,,0.00,0,Wunderground v.1.15,2013-02-14 09:22:00,
2013-02-14 04:28:00,63.4,61.0,29.98,NW,308,0.0,0.0,92,0.00,,,0.00,0,Wunderground v.1.15,2013-02-14 09:28:00,
2013-02-14 04:34:00,63.5,61.1,29.98,NW,308,0.0,0.0,92,0.00,,,0.00,0,Wunderground v.1.15,2013-02-14 09:34:00,
2013-02-14 04:40:00,63.6,61.5,29.98,NW,308,0.0,0.0,93,0.00,,,0.00,0,Wunderground v.1.15,2013-02-14 09:40:00,
2013-02-14 04:46:00,63.7,61.6,29.97,NW,308,0.0,0.0,93,0.00,,,0.00,0,Wunderground v.1.15,2013-02-14 09:46:00,
2013-02-14 04:52:00,63.6,61.5,29.97,NW,308,0.0,0.0,93,0.00,,,0.00,0,Wunderground v.1.15,2013-02-14 09:52:00,
2013-02-14 04:58:00,63.5,61.4,29.96,NW,308,0.0,0.0,93,0.00,,,0.00,0,Wunderground v.1.15,2013-02-14 09:58:00,
2013-02-14 05:04:00,63.4,61.3,29.97,NW,308,0.0,0.0,93,0.00,,,0.00,0,Wunderground v.1.15,2013-02-14 10:04:00,
2013-02-14 05:10:00,63.3,61.5,29.97,NW,308,0.0,0.0,94,0.00,,,0.00,0,Wunderground v.1.15,2013-02-14 10:10:00,
2013-02-14 05:16:00,63.2,61.4,29.97,NW,308,0.0,0.0,94,0.00,,,0.00,0,Wunderground v.1.15,2013-02-14 10:16:00,
2013-02-14 05:22:00,63.3,61.5,29.97,NW,308,0.0,0.0,94,0.00,,,0.00,0,Wunderground v.1.15,2013-02-14 10:22:00,
2013-02-14 05:28:00,63.3,61.5,29.97,NW,308,0.0,0.0,94,0.00,,,0.00,0,Wunderground v.1.15,2013-02-14 10:28:00,
2013-02-14 05:34:00,63.4,61.6,29.97,NW,308,0.0,0.0,94,0.00,,,0.00,0,Wunderground v.1.15,2013-02-14 10:34:00,
2013-02-14 05:40:00,63.4,61.3,29.97,NW,308,0.0,0.0,93,0.00,,,0.00,0,Wunderground v.1.15,2013-02-14 10:40:00,
2013-02-14 05:46:00,63.3,61.5,29.96,NW,308,0.0,0.0,94,0.00,,,0.00,0,Wunderground v.1.15,2013-02-14 10:46:00,
2013-02-14 05:52:00,63.2,61.1,29.97,NW,308,0.0,0.0,93,0.00,,,0.00,0,Wunderground v.1.15,2013-02-14 10:52:00,
2013-02-14 05:58:00,63.4,61.0,29.96,NW,308,0.0,0.0,92,0.00,,,0.00,0,Wunderground v.1.15,2013-02-14 10:58:00,
2013-02-14 06:04:00,63.6,61.2,29.97,NW,308,0.0,0.0,92,0.00,,,0.00,0,Wunderground v.1.15,2013-02-14 11:04:00,
2013-02-14 06:10:00,63.9,61.5,29.97,NW,308,0.0,0.0,92,0.00,,,0.00,0,Wunderground v.1.15,2013-02-14 11:10:00,
2013-02-14 06:16:00,64.2,61.5,29.98,NW,308,0.0,0.0,91,0.00,,,0.00,0,Wunderground v.1.15,2013-02-14 11:16:00,
2013-02-14 06:22:00,64.5,61.8,29.98,NW,308,0.0,0.0,91,0.00,,,0.00,0,Wunderground v.1.15,2013-02-14 11:22:00,
2013-02-14 06:28:00,64.7,62.0,29.98,NW,308,0.0,0.0,91,0.00,,,0.00,0,Wunderground v.1.15,2013-02-14 11:28:00,
2013-02-14 06:34:00,64.7,62.0,29.98,NW,308,0.0,0.0,91,0.00,,,0.00,0,Wunderground v.1.15,2013-02-14 11:34:00,
2013-02-14 06:40:00,64.7,62.0,29.99,NW,308,0.0,0.0,91,0.00,,,0.00,0,Wunderground v.1.15,2013-02-14 11:40:00,
2013-02-14 06:46:00,64.5,62.1,29.98,NW,308,0.0,0.0,92,0.00,,,0.00,0,Wunderground v.1.15,2013-02-14 11:46:00,
2013-02-14 06:52:00,64.5,62.1,29.98,NW,308,0.0,0.0,92,0.00,,,0.00,0,Wunderground v.1.15,2013-02-14 11:52:00,
2013-02-14 06:58:00,64.6,62.2,29.98,NW,308,0.0,0.0,92,0.00,,,0.00,0,Wunderground v.1.15,2013-02-14 11:58:00,
2013-02-14 07:04:00,64.9,62.5,29.98,NW,308,0.0,0.0,92,0.00,,,0.00,0,Wunderground v.1.15,2013-02-14 12:04:00,
2013-02-14 07:10:00,65.5,62.8,29.98,NW,308,0.0,0.0,91,0.00,,,0.00,0,Wunderground v.1.15,2013-02-14 12:10:00,
2013-02-14 07:16:00,66.2,62.9,29.98,NW,308,0.0,0.0,89,0.00,,,0.00,5,Wunderground v.1.15,2013-02-14 12:16:00,
2013-02-14 07:22:00,66.9,63.2,29.98,NW,311,0.0,0.0,88,0.00,,,0.00,9,Wunderground v.1.15,2013-02-14 12:22:00,
2013-02-14 07:28:00,67.4,63.1,29.98,NNE,20,0.0,0.0,86,0.00,,,0.00,19,Wunderground v.1.15,2013-02-14 12:28:00,
2013-02-14 07:34:00,67.8,63.1,29.99,East,88,0.0,0.0,85,0.00,,,0.00,28,Wunderground v.1.15,2013-02-14 12:34:00,
2013-02-14 07:40:00,68.1,63.1,29.98,East,88,0.0,0.0,84,0.00,,,0.00,25,Wunderground v.1.15,2013-02-14 12:40:00,
2013-02-14 07:46:00,68.3,63.3,29.98,ESE,105,1.0,4.0,84,0.00,,,0.00,32,Wunderground v.1.15,2013-02-14 12:46:00,
2013-02-14 07:52:00,68.5,63.5,29.98,ESE,123,2.0,3.0,84,0.00,,,0.00,33,Wunderground v.1.15,2013-02-14 12:52:00,
2013-02-14 07:58:00,68.7,63.3,29.98,ESE,110,2.0,3.0,83,0.00,,,0.00,46,Wunderground v.1.15,2013-02-14 12:58:00,
2013-02-14 08:04:00,68.9,63.5,29.99,ESE,111,1.0,3.0,83,0.00,,,0.00,53,Wunderground v.1.15,2013-02-14 13:04:00,
2013-02-14 08:10:00,69.1,63.7,29.99,ESE,107,1.0,1.0,83,0.00,,,0.00,93,Wunderground v.1.15,2013-02-14 13:10:00,
2013-02-14 08:16:00,69.4,63.0,29.99,SE,125,1.0,3.0,80,0.00,,,0.00,95,Wunderground v.1.15,2013-02-14 13:16:00,
2013-02-14 08:22:00,69.7,62.5,29.99,ESE,122,1.0,1.0,78,0.00,,,0.00,58,Wunderground v.1.15,2013-02-14 13:22:00,
2013-02-14 08:28:00,69.7,62.2,30.01,SE,132,1.0,1.0,77,0.00,,,0.00,30,Wunderground v.1.15,2013-02-14 13:28:00,
2013-02-14 08:34:00,69.7,62.2,30.01,SE,129,1.0,1.0,77,0.00,,,0.00,47,Wunderground v.1.15,2013-02-14 13:34:00,
2013-02-14 08:40:00,69.8,61.5,30.01,SE,130,0.0,0.0,75,0.00,,,0.00,72,Wunderground v.1.15,2013-02-14 13:40:00,
2013-02-14 08:46:00,70.0,62.1,30.01,SE,128,0.0,0.0,76,0.00,,,0.00,98,Wunderground v.1.15,2013-02-14 13:46:00,
2013-02-14 08:52:00,70.1,61.8,30.01,SE,128,0.0,0.0,75,0.00,,,0.00,58,Wunderground v.1.15,2013-02-14 13:52:00,
2013-02-14 08:58:00,70.2,61.5,30.01,SE,128,0.0,0.0,74,0.00,,,0.00,76,Wunderground v.1.15,2013-02-14 13:58:00,
2013-02-14 09:04:00,70.3,61.6,30.01,SE,128,0.0,0.0,74,0.00,,,0.00,139,Wunderground v.1.15,2013-02-14 14:04:00,
2013-02-14 09:10:00,70.5,61.8,30.01,SE,128,0.0,0.0,74,0.00,,,0.00,83,Wunderground v.1.15,2013-02-14 14:10:00,
2013-02-14 09:16:00,70.6,61.9,30.01,SE,128,0.0,0.0,74,0.00,,,0.00,104,Wunderground v.1.15,2013-02-14 14:16:00,
2013-02-14 09:22:00,70.7,62.0,30.01,SE,127,1.0,4.0,74,0.00,,,0.00,216,Wunderground v.1.15,2013-02-14 14:22:00,
2013-02-14 09:28:00,71.2,62.5,30.01,SE,126,1.0,4.0,74,0.00,,,0.00,179,Wunderground v.1.15,2013-02-14 14:28:00,
2013-02-14 09:34:00,71.2,62.5,30.01,SE,124,0.0,4.0,74,0.00,,,0.00,221,Wunderground v.1.15,2013-02-14 14:34:00,
2013-02-14 09:40:00,71.4,63.1,30.01,SE,124,0.0,0.0,75,0.00,,,0.00,295,Wunderground v.1.15,2013-02-14 14:40:00,
2013-02-14 09:46:00,71.7,62.6,30.01,SE,124,0.0,0.0,73,0.00,,,0.00,135,Wunderground v.1.15,2013-02-14 14:46:00,
2013-02-14 09:52:00,71.4,63.1,30.01,SE,124,0.0,0.0,75,0.00,,,0.00,125,Wunderground v.1.15,2013-02-14 14:52:00,
2013-02-14 09:58:00,71.2,62.5,30.02,SE,124,0.0,0.0,74,0.00,,,0.00,121,Wunderground v.1.15,2013-02-14 14:58:00,
2013-02-14 10:04:00,71.3,63.0,30.01,SE,124,0.0,0.0,75,0.00,,,0.00,241,Wunderground v.1.15,2013-02-14 15:04:00,
2013-02-14 10:10:00,71.6,63.3,30.01,SE,124,0.0,0.0,75,0.00,,,0.00,287,Wunderground v.1.15,2013-02-14 15:10:00,
2013-02-14 10:16:00,72.0,62.9,30.01,SE,124,0.0,0.0,73,0.00,,,0.00,216,Wunderground v.1.15,2013-02-14 15:16:00,
2013-02-14 10:22:00,72.1,63.7,30.01,SE,124,0.0,0.0,75,0.00,,,0.00,185,Wunderground v.1.15,2013-02-14 15:22:00,
2013-02-14 10:28:00,72.1,63.7,30.01,SE,124,0.0,0.0,75,0.00,,,0.00,197,Wunderground v.1.15,2013-02-14 15:28:00,
2013-02-14 10:34:00,71.9,63.5,30.02,ESE,123,0.0,0.0,75,0.00,,,0.00,163,Wunderground v.1.15,2013-02-14 15:34:00,
2013-02-14 10:40:00,72.1,63.7,30.02,ESE,123,0.0,0.0,75,0.00,,,0.00,148,Wunderground v.1.15,2013-02-14 15:40:00,
2013-02-14 10:46:00,71.9,63.9,30.01,ESE,123,0.0,0.0,76,0.00,,,0.00,183,Wunderground v.1.15,2013-02-14 15:46:00,
2013-02-14 10:52:00,71.6,63.6,30.01,ESE,123,0.0,0.0,76,0.00,,,0.00,174,Wunderground v.1.15,2013-02-14 15:52:00,
2013-02-14 10:58:00,71.5,64.3,30.01,ESE,123,0.0,0.0,78,0.00,,,0.00,267,Wunderground v.1.15,2013-02-14 15:58:00,
2013-02-14 11:04:00,71.4,64.2,30.01,ESE,123,0.0,0.0,78,0.00,,,0.00,107,Wunderground v.1.15,2013-02-14 16:04:00,
2013-02-14 11:10:00,71.3,64.4,30.01,ENE,61,0.0,4.0,79,0.00,,,0.00,98,Wunderground v.1.15,2013-02-14 16:10:00,
2013-02-14 11:16:00,70.9,64.8,30.01,ENE,61,1.0,4.0,81,0.00,,,0.01,107,Wunderground v.1.15,2013-02-14 16:16:00,
2013-02-14 11:22:00,70.7,64.9,30.01,ENE,61,1.0,1.0,82,0.00,,,0.01,116,Wunderground v.1.15,2013-02-14 16:22:00,
2013-02-14 11:28:00,70.8,65.4,30.02,North,5,0.0,1.0,83,0.00,,,0.01,58,Wunderground v.1.15,2013-02-14 16:28:00,
2013-02-14 11:34:00,70.7,64.9,30.02,NNW,329,1.0,3.0,82,0.00,,,0.01,28,Wunderground v.1.15,2013-02-14 16:34:00,
2013-02-14 11:40:00,70.5,65.4,30.02,NNW,328,2.0,5.0,84,0.00,,,0.01,58,Wunderground v.1.15,2013-02-14 16:40:00,
2013-02-14 11:46:00,69.9,65.2,30.02,NNW,331,2.0,5.0,85,0.25,,,0.03,81,Wunderground v.1.15,2013-02-14 16:46:00,
2013-02-14 11:52:00,69.4,65.4,30.02,NNW,336,1.0,2.0,87,0.07,,,0.03,70,Wunderground v.1.15,2013-02-14 16:52:00,
2013-02-14 11:58:00,68.6,65.2,30.01,North,355,2.0,6.0,89,0.04,,,0.03,148,Wunderground v.1.15,2013-02-14 16:58:00,
2013-02-14 12:04:00,68.3,64.9,30.01,NNE,12,5.0,9.0,89,0.00,,,0.03,144,Wunderground v.1.15,2013-02-14 17:04:00,
2013-02-14 12:10:00,68.4,65.7,30.00,NNE,13,6.0,6.0,91,0.00,,,0.03,227,Wunderground v.1.15,2013-02-14 17:10:00,
2013-02-14 12:16:00,68.5,65.4,30.00,NNW,338,6.0,9.0,90,0.00,,,0.03,146,Wunderground v.1.15,2013-02-14 17:16:00,
2013-02-14 12:22:00,68.4,65.4,30.00,NNW,346,6.0,9.0,90,0.00,,,0.03,229,Wunderground v.1.15,2013-02-14 17:22:00,
2013-02-14 12:28:00,68.3,65.3,30.00,NNW,335,7.0,9.0,90,0.00,,,0.03,172,Wunderground v.1.15,2013-02-14 17:28:00,
2013-02-14 12:34:00,68.0,64.6,30.00,North,350,7.0,7.0,89,0.00,,,0.03,148,Wunderground v.1.15,2013-02-14 17:34:00,
2013-02-14 12:40:00,67.4,64.0,30.00,North,360,8.0,8.0,89,0.00,,,0.03,100,Wunderground v.1.15,2013-02-14 17:40:00,
2013-02-14 12:46:00,67.3,63.9,30.00,NNE,13,9.0,11.0,89,0.00,,,0.03,47,Wunderground v.1.15,2013-02-14 17:46:00,
2013-02-14 12:52:00,67.0,63.6,30.00,North,350,9.0,10.0,89,0.00,,,0.03,42,Wunderground v.1.15,2013-02-14 17:52:00,
2013-02-14 12:58:00,66.8,63.5,30.00,North,350,10.0,18.0,89,0.00,,,0.04,25,Wunderground v.1.15,2013-02-14 17:58:00,
2013-02-14 13:04:00,66.3,63.3,30.00,NNW,331,8.0,14.0,90,0.29,,,0.07,32,Wunderground v.1.15,2013-02-14 18:04:00,
2013-02-14 13:10:00,65.1,61.8,30.00,North,350,9.0,9.0,89,0.09,,,0.07,47,Wunderground v.1.15,2013-02-14 18:10:00,
2013-02-14 13:16:00,64.5,61.2,30.00,NNW,335,10.0,11.0,89,0.05,,,0.07,60,Wunderground v.1.15,2013-02-14 18:16:00,
2013-02-14 13:22:00,64.2,61.5,30.00,NNW,342,9.0,9.0,91,0.00,,,0.07,28,Wunderground v.1.15,2013-02-14 18:22:00,
2013-02-14 13:28:00,64.1,61.7,30.00,North,360,6.0,16.0,92,0.00,,,0.07,32,Wunderground v.1.15,2013-02-14 18:28:00,
2013-02-14 13:34:00,64.0,61.6,30.00,NNW,348,6.0,13.0,92,0.00,,,0.08,28,Wunderground v.1.15,2013-02-14 18:34:00,
2013-02-14 13:40:00,63.8,61.7,30.00,North,355,6.0,6.0,93,0.09,,,0.09,39,Wunderground v.1.15,2013-02-14 18:40:00,
2013-02-14 13:46:00,63.5,61.4,29.99,NW,309,7.0,9.0,93,0.09,,,0.09,35,Wunderground v.1.15,2013-02-14 18:46:00,
2013-02-14 13:52:00,63.2,61.1,29.99,NNW,340,6.0,11.0,93,0.08,,,0.10,42,Wunderground v.1.15,2013-02-14 18:52:00,
2013-02-14 13:58:00,63.0,60.9,29.98,North,350,7.0,12.0,93,0.07,,,0.11,62,Wunderground v.1.15,2013-02-14 18:58:00,
2013-02-14 14:04:00,62.7,60.6,29.99,NNW,346,7.0,11.0,93,0.06,,,0.11,76,Wunderground v.1.15,2013-02-14 19:04:00,
2013-02-14 14:10:00,62.6,60.8,29.98,North,355,8.0,10.0,94,0.05,,,0.12,54,Wunderground v.1.15,2013-02-14 19:10:00,
2013-02-14 14:16:00,62.5,60.7,29.98,North,5,8.0,11.0,94,0.11,,,0.13,60,Wunderground v.1.15,2013-02-14 19:16:00,
2013-02-14 14:22:00,62.4,60.7,29.98,North,5,8.0,10.0,94,0.10,,,0.14,49,Wunderground v.1.15,2013-02-14 19:22:00,
2013-02-14 14:28:00,62.3,60.6,29.98,NNW,340,9.0,11.0,94,0.12,,,0.15,65,Wunderground v.1.15,2013-02-14 19:28:00,
2013-02-14 14:34:00,62.4,60.7,29.99,NNW,343,8.0,15.0,94,0.06,,,0.15,58,Wunderground v.1.15,2013-02-14 19:34:00,
2013-02-14 14:40:00,62.4,60.7,29.98,NW,306,7.0,10.0,94,0.04,,,0.16,47,Wunderground v.1.15,2013-02-14 19:40:00,
2013-02-14 14:46:00,62.5,61.0,29.98,NW,322,7.0,11.0,95,0.12,,,0.17,60,Wunderground v.1.15,2013-02-14 19:46:00,
2013-02-14 14:52:00,62.5,61.0,29.98,NNW,338,7.0,12.0,95,0.07,,,0.18,56,Wunderground v.1.15,2013-02-14 19:52:00,
2013-02-14 14:58:00,62.4,60.7,29.98,NNW,332,6.0,12.0,94,0.17,,,0.19,33,Wunderground v.1.15,2013-02-14 19:58:00,
2013-02-14 15:04:00,62.1,60.4,29.98,NNW,339,4.0,5.0,94,0.38,,,0.21,23,Wunderground v.1.15,2013-02-14 20:04:00,
2013-02-14 15:10:00,61.9,60.2,29.97,NNW,341,5.0,6.0,94,0.61,,,0.24,37,Wunderground v.1.15,2013-02-14 20:10:00,
2013-02-14 15:16:00,61.8,60.4,29.96,North,355,6.0,6.0,95,0.24,,,0.27,47,Wunderground v.1.15,2013-02-14 20:16:00,
2013-02-14 15:22:00,61.8,60.4,29.96,NW,322,6.0,8.0,95,0.16,,,0.29,47,Wunderground v.1.15,2013-02-14 20:22:00,
2013-02-14 15:28:00,61.9,60.7,29.96,North,11,3.0,8.0,96,0.15,,,0.31,79,Wunderground v.1.15,2013-02-14 20:28:00,
2013-02-14 15:34:00,62.3,61.1,29.95,North,9,5.0,9.0,96,0.08,,,0.31,69,Wunderground v.1.15,2013-02-14 20:34:00,
2013-02-14 15:40:00,62.4,61.2,29.95,NNW,344,6.0,6.0,96,0.04,,,0.31,40,Wunderground v.1.15,2013-02-14 20:40:00,
2013-02-14 15:46:00,62.5,61.3,29.96,North,360,5.0,6.0,96,0.00,,,0.31,19,Wunderground v.1.15,2013-02-14 20:46:00,
2013-02-14 15:52:00,62.3,60.8,29.98,NNW,347,3.0,5.0,95,0.00,,,0.31,19,Wunderground v.1.15,2013-02-14 20:52:00,
2013-02-14 15:58:00,62.5,61.0,29.99,North,11,1.0,5.0,95,0.00,,,0.32,26,Wunderground v.1.15,2013-02-14 20:58:00,
2013-02-14 16:04:00,62.5,61.0,29.98,North,11,0.0,1.0,95,0.39,,,0.35,33,Wunderground v.1.15,2013-02-14 21:04:00,
2013-02-14 16:10:00,62.3,60.8,29.96,NNW,337,1.0,2.0,95,0.29,,,0.38,35,Wunderground v.1.15,2013-02-14 21:10:00,
2013-02-14 16:16:00,62.2,60.8,29.98,NNW,342,3.0,8.0,95,0.26,,,0.41,32,Wunderground v.1.15,2013-02-14 21:16:00,
2013-02-14 16:22:00,62.4,61.2,29.98,North,355,2.0,3.0,96,0.09,,,0.41,33,Wunderground v.1.15,2013-02-14 21:22:00,
2013-02-14 16:28:00,62.5,61.3,29.99,North,355,0.0,3.0,96,0.08,,,0.42,19,Wunderground v.1.15,2013-02-14 21:28:00,
2013-02-14 16:34:00,62.6,61.4,29.98,North,355,0.0,0.0,96,0.10,,,0.43,30,Wunderground v.1.15,2013-02-14 21:34:00,
2013-02-14 16:40:00,62.7,61.5,29.97,NNW,343,0.0,0.0,96,0.45,,,0.44,51,Wunderground v.1.15,2013-02-14 21:40:00,
2013-02-14 16:46:00,62.6,61.4,29.98,NNW,340,0.0,0.0,96,0.18,,,0.46,32,Wunderground v.1.15,2013-02-14 21:46:00,
2013-02-14 16:52:00,62.6,61.4,29.96,North,355,1.0,5.0,96,0.10,,,0.47,33,Wunderground v.1.15,2013-02-14 21:52:00,
2013-02-14 16:58:00,62.6,61.4,29.97,North,355,3.0,9.0,96,0.05,,,0.47,23,Wunderground v.1.15,2013-02-14 21:58:00,
2013-02-14 17:04:00,62.5,61.0,29.98,NNW,332,4.0,9.0,95,0.00,,,0.47,16,Wunderground v.1.15,2013-02-14 22:04:00,
2013-02-14 17:10:00,62.5,61.0,29.99,NNW,346,4.0,4.0,95,0.00,,,0.47,9,Wunderground v.1.15,2013-02-14 22:10:00,
2013-02-14 17:16:00,62.6,60.8,29.99,North,351,3.0,6.0,94,0.00,,,0.47,5,Wunderground v.1.15,2013-02-14 22:16:00,
2013-02-14 17:22:00,62.7,61.2,30.01,NNW,344,3.0,3.0,95,0.00,,,0.48,5,Wunderground v.1.15,2013-02-14 22:22:00,
2013-02-14 17:28:00,62.7,61.2,30.00,North,350,1.0,4.0,95,0.00,,,0.48,5,Wunderground v.1.15,2013-02-14 22:28:00,
2013-02-14 17:34:00,62.5,61.0,30.00,NNW,346,2.0,8.0,95,0.09,,,0.49,5,Wunderground v.1.15,2013-02-14 22:34:00,
2013-02-14 17:40:00,62.5,61.0,30.01,NNW,333,5.0,5.0,95,0.06,,,0.50,0,Wunderground v.1.15,2013-02-14 22:40:00,
2013-02-14 17:46:00,62.7,61.2,30.02,NW,305,4.0,5.0,95,0.06,,,0.50,0,Wunderground v.1.15,2013-02-14 22:46:00,
2013-02-14 17:52:00,62.7,60.9,30.03,NW,309,3.0,3.0,94,0.08,,,0.51,0,Wunderground v.1.15,2013-02-14 22:52:00,
2013-02-14 17:58:00,62.7,61.2,30.04,NW,309,2.0,3.0,95,0.24,,,0.53,0,Wunderground v.1.15,2013-02-14 22:58:00,
2013-02-14 18:04:00,62.5,61.0,30.03,NW,309,0.0,2.0,95,0.25,,,0.55,0,Wunderground v.1.15,2013-02-14 23:04:00,
2013-02-14 18:10:00,62.4,60.9,30.03,NW,317,0.0,0.0,95,0.10,,,0.56,0,Wunderground v.1.15,2013-02-14 23:10:00,
2013-02-14 18:16:00,62.2,60.8,30.02,NNW,343,1.0,8.0,95,0.13,,,0.57,0,Wunderground v.1.15,2013-02-14 23:16:00,
2013-02-14 18:22:00,62.3,61.1,30.01,NNW,348,5.0,6.0,96,0.07,,,0.57,0,Wunderground v.1.15,2013-02-14 23:22:00,
2013-02-14 18:28:00,62.4,61.2,30.01,North,360,6.0,6.0,96,0.06,,,0.58,0,Wunderground v.1.15,2013-02-14 23:28:00,
2013-02-14 18:34:00,62.6,61.4,30.01,North,355,5.0,7.0,96,0.08,,,0.59,0,Wunderground v.1.15,2013-02-14 23:34:00,
2013-02-14 18:40:00,62.7,61.5,30.01,NNE,17,5.0,6.0,96,0.07,,,0.59,0,Wunderground v.1.15,2013-02-14 23:40:00,
2013-02-14 18:46:00,62.6,61.4,30.01,North,351,5.0,9.0,96,0.04,,,0.59,0,Wunderground v.1.15,2013-02-14 23:46:00,
2013-02-14 18:52:00,62.4,60.9,30.01,North,355,5.0,10.0,95,0.00,,,0.59,0,Wunderground v.1.15,2013-02-14 23:52:00,
2013-02-14 18:58:00,62.3,60.8,30.00,North,5,6.0,10.0,95,0.00,,,0.59,0,Wunderground v.1.15,2013-02-14 23:58:00,
2013-02-14 19:04:00,62.1,60.7,30.00,NE,49,7.0,11.0,95,0.00,,,0.59,0,Wunderground v.1.15,2013-02-15 00:04:00,
2013-02-14 19:10:00,62.1,60.7,30.01,NE,37,7.0,7.0,95,0.00,,,0.59,0,Wunderground v.1.15,2013-02-15 00:10:00,
2013-02-14 19:16:00,62.1,60.7,30.03,NNW,338,6.0,7.0,95,0.00,,,0.60,0,Wunderground v.1.15,2013-02-15 00:16:00,
2013-02-14 19:22:00,62.1,60.7,30.03,NNW,348,4.0,5.0,95,0.00,,,0.60,0,Wunderground v.1.15,2013-02-15 00:22:00,
2013-02-14 19:28:00,62.0,60.3,30.04,NNW,341,4.0,8.0,94,0.05,,,0.61,0,Wunderground v.1.15,2013-02-15 00:28:00,
2013-02-14 19:34:00,62.0,60.6,30.03,NNW,334,5.0,6.0,95,0.05,,,0.61,0,Wunderground v.1.15,2013-02-15 00:34:00,
2013-02-14 19:40:00,62.1,60.7,30.04,North,355,4.0,4.0,95,0.06,,,0.62,0,Wunderground v.1.15,2013-02-15 00:40:00,
2013-02-14 19:46:00,62.0,60.6,30.05,NW,325,3.0,4.0,95,0.12,,,0.63,0,Wunderground v.1.15,2013-02-15 00:46:00,
2013-02-14 19:52:00,61.8,60.1,30.06,NNW,346,3.0,6.0,94,0.07,,,0.64,0,Wunderground v.1.15,2013-02-15 00:52:00,
2013-02-14 19:58:00,61.8,60.1,30.06,NNW,336,3.0,6.0,94,0.13,,,0.65,0,Wunderground v.1.15,2013-02-15 00:58:00,
2013-02-14 20:04:00,61.7,60.3,30.06,NNW,336,1.0,3.0,95,0.21,,,0.67,0,Wunderground v.1.15,2013-02-15 01:04:00,
2013-02-14 20:10:00,61.6,60.2,30.07,NW,325,0.0,0.0,95,0.25,,,0.69,0,Wunderground v.1.15,2013-02-15 01:10:00,
2013-02-14 20:16:00,61.3,59.9,30.06,NW,304,0.0,0.0,95,0.09,,,0.69,0,Wunderground v.1.15,2013-02-15 01:16:00,
2013-02-14 20:22:00,61.1,59.7,30.06,NNW,336,1.0,2.0,95,0.19,,,0.71,0,Wunderground v.1.15,2013-02-15 01:22:00,
2013-02-14 20:28:00,60.9,59.5,30.06,NNW,336,1.0,2.0,95,0.10,,,0.72,0,Wunderground v.1.15,2013-02-15 01:28:00,
2013-02-14 20:34:00,60.9,59.8,30.06,NNW,334,0.0,1.0,96,0.13,,,0.73,0,Wunderground v.1.15,2013-02-15 01:34:00,
2013-02-14 20:40:00,60.8,59.7,30.06,NNW,334,0.0,0.0,96,0.18,,,0.75,0,Wunderground v.1.15,2013-02-15 01:40:00,
2013-02-14 20:46:00,60.8,59.7,30.05,NE,45,0.0,0.0,96,0.11,,,0.76,0,Wunderground v.1.15,2013-02-15 01:46:00,
2013-02-14 20:52:00,60.8,59.7,30.06,NE,42,0.0,0.0,96,0.11,,,0.77,0,Wunderground v.1.15,2013-02-15 01:52:00,
2013-02-14 20:58:00,60.8,59.7,30.05,NE,45,0.0,0.0,96,0.06,,,0.78,0,Wunderground v.1.15,2013-02-15 01:58:00,
2013-02-14 21:04:00,61.1,60.0,30.05,NE,51,0.0,0.0,96,0.17,,,0.79,0,Wunderground v.1.15,2013-02-15 02:04:00,
2013-02-14 21:10:00,61.4,60.2,30.04,ENE,63,1.0,1.0,96,0.07,,,0.79,0,Wunderground v.1.15,2013-02-15 02:10:00,
2013-02-14 21:16:00,61.5,60.3,30.03,ENE,68,2.0,4.0,96,0.04,,,0.79,0,Wunderground v.1.15,2013-02-15 02:16:00,
2013-02-14 21:22:00,61.5,60.3,30.03,ENE,77,1.0,3.0,96,0.00,,,0.79,0,Wunderground v.1.15,2013-02-15 02:22:00,
2013-02-14 21:28:00,61.4,60.0,30.03,ENE,62,2.0,5.0,95,0.00,,,0.80,0,Wunderground v.1.15,2013-02-15 02:28:00,
2013-02-14 21:34:00,61.4,60.0,30.05,NE,44,1.0,2.0,95,0.00,,,0.80,0,Wunderground v.1.15,2013-02-15 02:34:00,
2013-02-14 21:40:00,61.5,59.8,30.06,NNE,19,0.0,0.0,94,0.00,,,0.80,0,Wunderground v.1.15,2013-02-15 02:40:00,
2013-02-14 21:46:00,61.6,59.6,30.06,NNE,19,0.0,0.0,93,0.04,,,0.81,0,Wunderground v.1.15,2013-02-15 02:46:00,
2013-02-14 21:52:00,61.6,59.6,30.06,NNE,24,0.0,0.0,93,0.04,,,0.81,0,Wunderground v.1.15,2013-02-15 02:52:00,
2013-02-14 21:58:00,61.5,59.2,30.06,NNE,24,0.0,0.0,92,0.16,,,0.83,0,Wunderground v.1.15,2013-02-15 02:58:00,
2013-02-14 22:04:00,61.4,59.1,30.06,NNE,24,0.0,0.0,92,0.23,,,0.85,0,Wunderground v.1.15,2013-02-15 03:04:00,
2013-02-14 22:10:00,61.3,59.3,30.06,NNE,24,0.0,0.0,93,0.10,,,0.85,0,Wunderground v.1.15,2013-02-15 03:10:00,
2013-02-14 22:16:00,61.2,59.2,30.05,NNE,24,0.0,0.0,93,0.05,,,0.86,0,Wunderground v.1.15,2013-02-15 03:16:00,
2013-02-14 22:22:00,61.2,59.2,30.05,NNE,28,0.0,0.0,93,0.11,,,0.87,0,Wunderground v.1.15,2013-02-15 03:22:00,
2013-02-14 22:28:00,61.3,59.6,30.04,NNE,28,0.0,0.0,94,0.08,,,0.88,0,Wunderground v.1.15,2013-02-15 03:28:00,
2013-02-14 22:34:00,61.0,59.0,30.03,East,89,0.0,0.0,93,0.08,,,0.88,0,Wunderground v.1.15,2013-02-15 03:34:00,
2013-02-14 22:40:00,61.2,59.5,30.03,East,92,1.0,1.0,94,0.05,,,0.88,0,Wunderground v.1.15,2013-02-15 03:40:00,
2013-02-14 22:46:00,61.2,59.2,30.02,ESE,103,2.0,4.0,93,0.00,,,0.88,0,Wunderground v.1.15,2013-02-15 03:46:00,
2013-02-14 22:52:00,61.4,59.4,30.02,East,98,4.0,4.0,93,0.00,,,0.88,0,Wunderground v.1.15,2013-02-15 03:52:00,
2013-02-14 22:58:00,61.7,59.7,30.02,East,98,1.0,4.0,93,0.00,,,0.88,0,Wunderground v.1.15,2013-02-15 03:58:00,
2013-02-14 23:04:00,61.8,59.8,30.01,ESE,106,2.0,4.0,93,0.00,,,0.89,0,Wunderground v.1.15,2013-02-15 04:04:00,
2013-02-14 23:10:00,61.6,59.3,30.01,ESE,111,4.0,4.0,92,0.00,,,0.89,0,Wunderground v.1.15,2013-02-15 04:10:00,
2013-02-14 23:16:00,61.5,59.2,29.99,ESE,113,4.0,5.0,92,0.00,,,0.89,0,Wunderground v.1.15,2013-02-15 04:16:00,
2013-02-14 23:22:00,61.6,59.3,30.00,SE,130,3.0,4.0,92,0.00,,,0.89,0,Wunderground v.1.15,2013-02-15 04:22:00,
2013-02-14 23:28:00,61.8,59.8,30.01,SE,138,2.0,4.0,93,0.00,,,0.89,0,Wunderground v.1.15,2013-02-15 04:28:00,
2013-02-14 23:34:00,62.0,60.3,30.01,ESE,107,1.0,4.0,94,0.00,,,0.90,0,Wunderground v.1.15,2013-02-15 04:34:00,
2013-02-14 23:40:00,61.9,59.9,30.01,ESE,105,2.0,7.0,93,0.09,,,0.91,0,Wunderground v.1.15,2013-02-15 04:40:00,
2013-02-14 23:46:00,61.8,59.5,30.01,SE,140,3.0,7.0,92,0.07,,,0.92,0,Wunderground v.1.15,2013-02-15 04:46:00,
2013-02-14 23:52:00,61.8,59.5,30.01,ESE,109,1.0,3.0,92,0.07,,,0.92,0,Wunderground v.1.15,2013-02-15 04:52:00,
2013-02-14 23:58:00,62.0,59.6,30.03,ESE,116,1.0,3.0,92,0.04,,,0.92,0,Wunderground v.1.15,2013-02-15 04:58:00,